Showing default

YAOGAN-33 03, 57797

Orbit data source: Space-Track

YAOGAN-33 03, 57797 is a payload satellite owned by PLA SSF (CN) in SSO that was launched on Wed, 06 Sep 2023 UTC via a CHANG ZHENG 4C launch vehicle from the Jiuquan Satellite Launch Center, China (JSC). Payload-class satellites include a variety of spacecraft equipped with specific instruments for various scientific and technological missions. These include communications satellites like Starlink; space stations such as the ISS; scientific satellites like the Hubble; Earth observation satellites from companies like Planet Labs, Umbra, and HawkEye 360; GPS; miniature CubeSats for education and research; and military/defense satellites.

Loading next visibility...
Identifier
57797, 2023-136A
Orbit
SSO
Country
Flag of CNCN / PRC
Related business
Manufacturer
SAST
Mission
Operational Defense Radar Imaging
Bus & Motor
JB-9, Unknown motor
Mass
1,040 kg wet, 1,040 kg dry
Launch date (UTC)
2023-09-06 (3 years ago)
Launch vehicle
CHANG ZHENG 4C
Launch site
Jiuquan Satellite Launch Center, China (JSC)
Object type
Payload
Rocket body
Debris
Shape & HBR
Box + 2 Pan, Unknown HBR
Radar Cross Section
4.795 m², Large (>1 m²)

Expand to show TLE details & history
Last TLE update: 22 hours ago

TLE from 22 hours ago
0 YAOGAN-33 03
1 57797U 23136A   26172.51538541  .00000268  00000-0  67245-4 0  9994
2 57797  98.1954  96.7763 0007887 163.9723 196.1728 14.58729172148566
Epoch: 2026-06-21T12:22Z
TLE epoch observation values (Epoch: 2026-06-21T12:22:09.299Z)
Latitude
0.00004°
Longitude
1.523°
Altitude
705.625 km
Speed
7.5 km/s
True Right ascension
06h 27m 06s
True Declination
0° 00' 00"
Sunlit
Object was in daylight at epoch
Visualization orbit readout
Latitude
Unknown
Longitude
Unknown
Altitude
Unknown
Speed
Unknown
Apparent Right ascension
Unknown
Apparent Declination
Unknown
Sunlit
N/A
Visualization observer readout
Local Sidereal Time
21:23:59
Azimuth
Unknown
Elevation
Unknown
Doppler factor
Unknown
Orbital elements
Apogee altitude
699.941 km
Perigee altitude
688.785 km
Semi-major axis
7,072.5 km
Eccentricity
0.00079
Inclination
98.1954°
RAAN
96.7763°
Arg. of periapsis
163.9723°
True anomaly
196.14765°
Mean anomaly
196.1728°
Eccentric anomaly
196.16022°
Mean motion
3.64908 °/min
Orbital period
98.65 mins
BSTAR
0.000067245
Loading maneuver chart data...
Computing Atmospheric mass density...
Loading historical data...
Loading historical data...
Loading historical data...
Loading historical data...
Loading historical data...
Loading historical data...
Loading historical data...
Other satellites on launch #136 in the year 2023 (2023-09-06 UTC)

Documentation

Showing up to 5 results
|